1st Responders/1st Detectors/Storm Spotters Weather Summary for Harrison County, KY

Forecast Maps


Reg. NEXRAD Animation


National Fire Danger: Day 1 & 2 Map

Current NWS Watch/Warnings

SPC Convective Day 1 Outlook


Day 2 Outlook

(Click images to enlarge|Page will refresh every 5 minutes)
UK Ag. Weather Center Desktop Severe Weather Service[HERE]
Harrison County, KY Hazardous Weather Outlook Webcast
(9 AM to 9 PM Mon-Fri)
[Fast]
[Dial-up]


UKAWC 1st Detectors/1st Responders Precision Weather Forecast For HARRISON County, Kentucky
(based on the NWS County Digital Forecast)

ISSUED AT 02:00 UTC ON SUNDAY MAR 07 2021
DAY SAT SUNDAY
EDT 3HR 11P MIDN 1A 2A 3A 4A 5A 6A 7A 8A 9A 10A 11A NOON 1P 2P 3P 4P 5P 6P 7P
MAX/MIN -- -- -- -- -- -- -- -- -- 25° -- -- -- -- -- -- -- -- -- -- 49°
TEMP 34° 32° 32° 31° 31° 29° 29° 27° 27° 25° 29° 31° 34° 38° 40° 43° 45° 47° 47° 45° 43°
SKY COVER 2% 2% 5% 32% 42% 37% 33% 27% 13% 14% 2% 0% 7% 6% 3% 3% 3% 3% 2% 4% 2%
Clouds
DEW PT 22° 20° 22° 22° 22° 20° 20° 20° 20° 20° 20° 20° 20° 18° 18° 16° 18° 18° 18° 20° 20°
RH 60% 61% 63% 66% 68% 68% 71% 74% 74% 81% 68% 61% 53% 45% 39% 34% 32% 32% 32% 34% 37%
POP 12HR -- -- -- -- -- -- -- -- -- 0% -- -- -- -- -- -- -- -- -- -- --
RAIN/SNOW (liq.equ) -- -- -- 0.00in -- -- -- -- -- 0.00in -- -- -- -- -- 0.00in -- -- -- -- --
SNOWFALL -- -- -- 0in -- -- -- -- -- 0in -- -- -- -- -- 0in -- -- -- -- --
WIND SPEED(MPH) 1 1 1 1 1 1 1 1 1 2 2 5 7 7 7 7 7 7 7 6 1
WIND Gust(MPH) 2 2 2 2 2 2 5 6 6 7 7 8 9 10 10 10 10 10 9 7 5
WIND DIR W W SW SW SW W NW NW NW N N N N N NW NW NW NW NW NW NW
DEW -- -- -- Frost Frost Frost Frost Freeze Freeze Freeze Frost -- -- -- -- -- -- -- -- -- --
HeatIndex 34 32 32 31 31 29 29 27 27 21 25 27 29 32 36 38 45 47 47 45 43
Rain Showers -- -- -- -- -- -- -- -- -- -- -- -- -- -- -- -- -- -- -- -- --
WIND CHILL -- -- -- -- -- -- -- -- -- -- -- 26° 28° 33° 35° 39° 41° -- -- 42° --
SPRAY COND
DRY COND
LIVESTOCK COLDSTRESS



DAY MONDAY TUESDAY WEDNESDAY THURSDAY FRIDAY SATURDAY
EDT 6HR 8P 9P 10P 11P MIDN 1A 2A 3A 4A 5A 6A 7A 8A 9A 10A 11A 2P 5P 8P 11P 2A 5A 8A 11A 2P 5P 8P 2A 8A 2P 8P 2A 8A 2P 8P 2A 8A 2P 8P 2A 8A 2P 8P
MAX/MIN -- -- -- -- -- -- -- -- -- -- -- -- 27° -- -- -- -- 59° -- -- -- -- 36° -- -- 61° -- -- 43° 65° -- -- 52° 65° -- -- 49° 58° -- -- 40° 54° --
TEMP 40° 38° 36° 34° 32° 31° 31° 29° 29° 29° 29° 29° 29° 34° 38° 43° 56° 58° 50° 45° 41° 38° 36° 49° 58° 61° 54° 47° 45° 61° 59° 54° 54° 61° 59° 54° 49° 56° 52° 45° 41° 52° 49°
SKY COVER 2% 2% 6% 9% 18% 20% 21% 17% 12% 8% 9% 10% 11% 11% 12% 12% 12% 11% 4% 7% 17% 40% 48% 55% 63% 57% 55% 36% 52% 65% 75% 70% 84% 80% 80% 71% 63% 67% 65% 62% 60% 63% 59%
Clouds
DEW PT 22° 20° 20° 20° 20° 20° 20° 20° 22° 22° 22° 22° 22° 25° 27° 29° 38° 38° 38° 36° 34° 34° 32° 38° 40° 40° 40° 38° 38° 47° 47° 45° 47° 52° 52° 49° 47° 45° 43° 40° 38° 40° 40°
RH 45% 50% 54% 58% 61% 63% 66% 68% 71% 71% 74% 74% 74% 68% 62% 57% 48% 47% 62% 72% 76% 84% 84% 65% 49% 45% 61% 73% 76% 57% 62% 74% 80% 72% 74% 83% 88% 64% 68% 82% 85% 63% 68%
POP 12HR 0% -- -- -- -- -- -- -- -- -- -- -- 0% -- -- -- -- -- 0% -- -- -- 0% -- -- -- 0% -- 1% -- 5% -- 31% -- 52% -- 59% -- 40% -- 35% -- 30%
RAIN/SNOW (liq.equ) 0.00in -- -- -- -- -- 0.00in -- -- -- -- -- 0.00in -- -- -- 0.00in -- 0.00in -- 0.00in -- 0.00in -- 0.00in -- 0.00in -- -- -- -- -- -- -- -- -- -- -- -- -- -- -- --
SNOWFALL 0in -- -- -- -- -- 0in -- -- -- -- -- 0in -- -- -- 0in -- 0in -- 0in -- 0in -- 0in -- 0in -- -- -- -- -- -- -- -- -- -- -- -- -- -- -- --
WIND SPEED(MPH) 1 1 2 2 2 2 2 2 5 5 5 5 5 6 7 7 9 8 7 7 6 6 6 7 9 10 7 7 8 15 14 13 15 13 15 9 14 10 9 6 14 13 10
WIND DIR NW W SW S S S S S S S S S S S S SW SW SW SW SW SW S S S SW SW S S S SW S S S SW SW SW W W NW W N N NE
HeatIndex 40 38 33 31 29 28 27 26 25 25 23 23 25 28 34 39 56 58 50 41 38 33 32 49 58 61 54 47 40 61 59 54 54 61 59 54 49 56 52 41 34 52 49
Rain Showers -- -- -- -- -- -- -- -- -- -- -- -- -- -- -- -- -- -- -- -- -- -- -- -- -- -- -- -- -- -- Slight Chance Chance Chance Chance Chance Likely Chance Chance Chance Chance Chance Chance Slight Chance
WIND CHILL -- -- -- -- -- -- -- -- 24° 24° 24° 24° 24° 29° 33° 39° -- -- -- 41° 37° 34° 31° -- -- -- -- -- 41° -- -- -- -- -- -- -- -- -- -- 42° 34° -- --
SPRAY COND
DRY COND
LIVESTOCK COLDSTRESS

Click on individual weather variable above in left-hand column (ie., TEMP, RH, QPF 12HR) to view state forecast maps






NWS 48 Hr. Forecast Maps,

Regional Hourly Observations For HARRISON County, Kentucky
Issued at 900 PM EST SAT MAR 06 2021
NORTHEAST KENTUCKY
  
CITY           SKY/WX    TMP DP  RH WIND       PRES   REMARKS
LEXINGTON      CLEAR     38  15  39 N6        30.29R WCI  33          
COVINGTON      CLEAR     38  15  39 NW6       30.29R WCI  33          
FRANKFORT      CLEAR     33  19  56 NW3       30.29R                  


Current NOWCAST not available:
Nowcasts are not issued routinely during fair weather. Only when
precipitation or other significant weather is occuring in this county will these
forecasts be issued. Currently, there is no short term forecast in effect.


Fire Weather Forecast For HARRISON County, KY
Provided by the National Weather Service:

Issued at: Sat Mar 6 21:05:01 EST 2021


                      Tonight      Sun          Sun Night    Mon          

CLOUD COVER           Mclear       Clear        Mclear       Mclear       
PRECIP TYPE           None         None         None         None         
CHANCE PRECIP (%)     0            0            0            0            
TEMP (24H TREND)      24 (0)       50 (+3)      28           63           
RH % (24H TREND)      81 (+3)      31 (-2)      76           44           
20FTWND-VAL/AM(MPH)                Lgt/Var                   Lgt/Var      
20FTWND-RDG/PM(MPH)   Lgt/Var      NW  5        Lgt/Var      SW  6        
PRECIP AMOUNT         0.00         0.00         0.00         0.00         
MIXING HGT(FT-AGL/MSL)             4087                      4761         
TRANSPORT WND (MPH)                NW 10                     SW 14        
VENT RATE (KT-FT)                  47448                     66024        
DISPERSION                         Fair                      Good         
DSI                   SLGT UNSTBL  SLGT UNSTBL  STBL         SLGT UNSTBL  
LAL                   1            1            1            1            
HAINES INDEX          4            4            5            3            
ADI EARLY             2 VERY POOR  28 FAIR      2 VERY POOR  23 FAIR      
ADI LATE              5 VERY POOR  38 FAIR      4 VERY POOR  53 GEN GOOD  
MAX LVORI EARLY       3            4            3            3            
MAX LVORI LATE        3            2            4            1            

REMARKS...ADI IS ATMOSPHERIC DISPERSION INDEX BY LAVDAS.        
LVORI IS LOW VISIBILITY OCCURRENCE RISK INDEX.

.TUESDAY...Partly cloudy. Lows in the upper 30s. Highs in the
lower 60s. Southwest winds around 5 mph. 
.WEDNESDAY...Partly cloudy. Lows in the mid 40s. Highs in the mid
60s. South winds up to 15 mph. 
.THURSDAY...Mostly cloudy with a 40 percent chance of rain
showers. Lows in the lower 50s. Highs in the mid 60s. Southwest
winds 5 to 15 mph. 
.FRIDAY...Mostly cloudy with a 50 percent chance of rain showers.
Lows in the lower 50s. Highs in the lower 60s. Southwest winds
5 to 10 mph. 
.SATURDAY...Mostly cloudy. A 40 percent chance of rain showers.
Lows in the lower 40s. Highs in the upper 50s. Northwest winds up
to 10 mph. 

SPC's Fire Weather Web Tool (Excellent!), SPC's Fire Weather Outlooks, NWS Fire Weather WEB, Fire Danger Class Map,
Keetch-Byram Drought Index, ROMAN Web, Haines Index ,
WFAS's 10-hr Dead Fuel Moist., WFAS's 100-hr Dead Fuel Moist., Probablity of Ignition, Visual blackness Map, Palmer Drought Index, HPC's Rainfall Forecast Maps


Hazardous Weather Outlook For HARRISON County, Kentucky
315 PM EST Sat Mar 6 2021 /215 PM CST Sat Mar 6 2021/

 DAY ONE  Tonight.

Flooding along the Kentucky, Ohio, and Green rivers will continue.

 DAYS TWO THROUGH SEVEN  Sunday through Friday.

River flooding will continue for much of the week, especially on the
Green and Ohio Rivers.

 SPOTTER INFORMATION STATEMENT  

Spotter activation is not anticipated at this time.

Latest HARRISON County, Kentucky Watches, Warnings and Advisories.
Additional Drought Info.: UKAWC Drought Page, Kentucky Drought Watch


7-Day Forecast For HARRISON County, KY

TONIGHT
Clear in the evening then becoming partly cloudy. Lows in the mid 20s. West winds up to 5 mph.

SUNDAY
Sunny. Highs in the upper 40s. Northwest winds 5 to 10 mph.

SUNDAY NIGHT
Mostly clear. Lows in the upper 20s. South winds up to 5 mph.

MONDAY
Mostly sunny. Highs in the upper 50s. Southwest winds 5 to 10 mph.

MONDAY NIGHT
Mostly clear. Lows in the mid 30s. Southwest winds 5 to 10 mph.

TUESDAY
Partly cloudy. Highs in the lower 60s.

TUESDAY NIGHT
Partly cloudy. Lows in the mid 40s.

WEDNESDAY
Partly cloudy. Highs in the mid 60s.

WEDNESDAY NIGHT
Mostly cloudy with a 30 percent chance of showers. Lows in the lower 50s.

THURSDAY
Mostly cloudy with a 50 percent chance of showers. Highs in the mid 60s.

THURSDAY NIGHT
Showers likely. Lows in the upper 40s. Chance of showers 60 percent.

FRIDAY
Partly cloudy with a 40 percent chance of showers. Highs in the upper 50s.

FRIDAY NIGHT
Partly cloudy with a 40 percent chance of showers. Lows around 40.

SATURDAY
Partly cloudy with a 40 percent chance of showers. Highs in the mid 50s.

Ag Weather Center, Department of Biosystems & Agricultural Engineering, University of Kentucky